Regional Weather Roundup
Issued by NWS Charleston, WV

Home | Current Version | Previous Version | Graphics & Text | Print | Product List | Glossary On
Versions: 1 2 3 4 5 6 7 8 9 10 11 12 13 14 15 16 17 18 19 20 21 22 23 24 25 26 27 28 29 30 31 32 33 34 35 36 37 38 39 40 41 42 43 44 45 46 47 48 49 50
000
ASUS41 KRLX 261710
RWRRLX
West Virginia Regional Weather Roundup
National Weather Service Charleston WV
1200 PM EST MON JAN 26 2015

Note: "fair" indicates few or no clouds below 12,000 feet with no
significant weather and/or obstructions to visibility.

WVZ003-261800-
Northern Panhandle of West Virginia

CITY           SKY/WX    TMP DP  RH WIND       PRES   REMARKS
WHEELING       LGT SNOW  25  22  88 NW9       29.71F VSB 3/4
$$

WVZ009-261800-
Northwest West Virginia

CITY           SKY/WX    TMP DP  RH WIND       PRES   REMARKS
PARKERSBURG    LGT SNOW  26  23  88 NW9       29.78S VSB 1
$$

WVZ006-261800-
Western West Virginia

CITY           SKY/WX    TMP DP  RH WIND       PRES   REMARKS
HUNTINGTON     MIX PCPN  26  23  88 W9G17     29.82S
$$

WVZ015-261800-
West Central West Virginia

CITY           SKY/WX    TMP DP  RH WIND       PRES   REMARKS
CHARLESTON     LGT SNOW  30  27  88 W13G20    29.76R VSB 1
$$

WVZ022-031-261800-
North Central West Virginia

CITY           SKY/WX    TMP DP  RH WIND       PRES   REMARKS
CLARKSBURG     LGT RAIN  38  37  97 NW7       29.65S FOG
MORGANTOWN     LGT SNOW  35  30  82 NE3       29.66F
$$

WVZ025-035-042-045-261800-
Southern West Virginia

CITY           SKY/WX    TMP DP  RH WIND       PRES   REMARKS
BECKLEY        LGT RAIN  37  34  89 W5        29.64S
LOGAN          SNOW      30  30 100 VRB6G13   29.74R VSB 1/2
BLUEFIELD      LGT RAIN  38  33  82 W10       29.64F
LEWISBURG      CLOUDY    38  36  93 CALM      29.64F FOG
$$

WVZ047-261800-
Northern Mountains of West Virginia

CITY           SKY/WX    TMP DP  RH WIND       PRES   REMARKS
ELKINS         LGT RAIN  35  35 100 CALM      29.63F FOG
$$

WVZ052-261800-
Eastern Panhandle of West Virginia

CITY           SKY/WX    TMP DP  RH WIND       PRES   REMARKS
MARTINSBURG    LGT SNOW  29  24  82 N7        29.78F
PETERSBURG     LGT SNOW  32  32  99 CALM      29.75S
$$


USA.gov is the U.S. government's official web portal to all federal, state and local government web resources and services.